Location: Recife
(8.0585°S, 34.8848°W)
Time: 11:04:33
(UTC-03:00)

Courier 1B - Pass Details

Date: 19 April 2026
Orbit: 962 x 1209 km, 28.3° (Epoch: 15 May)

Event Time Altitude Azimuth Distance (km) Brightness Sun altitude
Exits shadow 01:57:22 16° 77° (ENE) 2,556 10.1 -50.8°
Drops below altitude 10° 01:59:05 10° 87° (E) 3,006 10.5 -50.4°
Sets 02:02:26 0° 98° (E) 4,008 11.3 -49.6°
